"TOA5","MOW","CPU:UNC_MeetingWaters","DataHourly"
"TIMESTAMP","SondeTempC","SpCond","DOSat","DOmg","pH","Turb","BattVolt_Min"
"TS","","","","","","",""
"","Smp","Smp","Smp","Smp","Smp","Smp","Min"
"2002-03-01 00:00:00",5.21000003815,0.211999997497,88.3000030518,11.1999998093,7.19000005722,2.59999990463,12.5399999619
"2002-03-01 01:00:00",4.80999994278,0.224000006914,86.3000030518,11.0699996948,7.15000009537,2.40000009537,12.5100002289
"2002-03-01 02:00:00",4.65000009537,0.232999995351,86.9000015259,11.1899995804,7.11000013351,2.0,12.470000267
"2002-03-01 03:00:00",4.46999979019,0.246000006795,88.3000030518,11.4300003052,7.07000017166,1.79999995232,12.4399995804
"2002-03-01 04:00:00",4.11999988556,0.238999992609,89.4000015259,11.6800003052,7.05999994278,1.89999997616,12.3900003433
"2002-03-01 05:00:00",3.79999995232,0.239999994636,89.5999984741,11.8000001907,7.05000019073,2.59999990463,12.3299999237
"2002-03-01 06:00:00",3.63000011444,0.273999989033,93.0,12.3000001907,7.05000019073,2.59999990463,12.279999733
"2002-03-01 07:00:00",3.32999992371,0.246000006795,94.1999969482,12.5600004196,7.05000019073,2.09999990463,12.2600002289
"2002-03-01 08:00:00",3.20000004768,0.225999996066,97.6999969482,13.0799999237,7.05999994278,1.70000004768,12.8100004196
"2002-03-01 09:00:00",3.58999991417,0.256000012159,108.099998474,14.3199996948,7.11000013351,1.20000004768,12.7899999619
"2002-03-01 10:00:00",4.5,0.27500000596,117.900001526,15.2399997711,7.17999982834,1.0,13.7600002289
"2002-03-01 11:00:00",5.67000007629,0.270999997854,129.100006104,16.1900005341,7.30000019073,0.699999988079,13.3800001144
"2002-03-01 12:00:00",7.21999979019,0.273999989033,132.600006104,16.0,7.40999984741,0.699999988079,13.5900001526
"2002-03-01 13:00:00",8.28999996185,0.277999997139,133.600006104,15.6999998093,7.48999977112,0.600000023842,13.5600004196
"2002-03-01 14:00:00",8.89999961853,0.273000001907,132.800003052,15.3699998856,7.55999994278,0.699999988079,13.5200004578
"2002-03-01 15:00:00",9.47999954224,0.273999989033,133.100006104,15.1899995804,7.67000007629,0.699999988079,13.4600000381
"2002-03-01 16:00:00",9.43999958038,0.273000001907,132.699996948,15.1700000763,7.76999998093,0.899999976158,13.4099998474
"2002-03-01 17:00:00",9.01000022888,0.272000014782,123.300003052,14.2399997711,7.78000020981,1.20000004768,12.8500003815
"2002-03-01 18:00:00",8.65999984741,0.248999997973,115.800003052,13.4899997711,7.71000003815,1.79999995232,12.7899999619
"2002-03-01 19:00:00",8.14999961853,0.181999996305,106.199996948,12.5200004578,7.61999988556,3.09999990463,12.7399997711
"2002-03-01 20:00:00",7.76000022888,0.177000001073,99.4000015259,11.8400001526,7.5,6.09999990463,12.6899995804
"2002-03-01 21:00:00",7.48999977112,0.208000004292,93.3000030518,11.1800003052,7.38000011444,9.19999980927,12.6499996185
"2002-03-01 22:00:00",7.19999980927,0.277000010014,91.5999984741,11.0500001907,7.28000020981,15.3000001907,12.6199998856
"2002-03-01 23:00:00",6.90000009537,0.277999997139,90.4000015259,10.9899997711,7.21000003815,22.7999992371,12.5900001526
"2002-03-02 00:00:00",6.55999994278,0.259999990463,88.5,10.8599996567,7.15999984741,24.1000003815,12.5500001907
"2002-03-02 01:00:00",6.19999980927,0.247999995947,89.4000015259,11.0699996948,7.13000011444,19.5,12.529999733
"2002-03-02 02:00:00",5.73000001907,0.203999996185,89.5999984741,11.220000267,7.11000013351,14.0,12.4899997711
"2002-03-02 03:00:00",5.63999986649,0.194000005722,89.0999984741,11.1899995804,7.09999990463,9.69999980927,12.4600000381
"2002-03-02 04:00:00",5.44999980927,0.192000001669,89.3000030518,11.2600002289,7.09999990463,7.0,12.4300003052
"2002-03-02 05:00:00",5.25,0.179000005126,90.5,11.470000267,7.09000015259,4.90000009537,12.3800001144
"2002-03-02 06:00:00",5.44999980927,0.172999992967,91.0,11.4899997711,7.09000015259,4.5,12.3599996567
"2002-03-02 07:00:00",5.59000015259,0.268000006676,91.5,11.5,7.09000015259,3.5,12.3500003815
"2002-03-02 08:00:00",5.65000009537,0.261000007391,95.1999969482,11.9499998093,7.09999990463,2.90000009537,12.3599996567
"2002-03-02 09:00:00",5.78999996185,0.222000002861,101.300003052,12.6700000763,7.11999988556,2.0,12.4099998474
"2002-03-02 10:00:00",6.13000011444,0.228000000119,108.0,13.3900003433,7.17000007629,1.5,12.4099998474
"2002-03-02 11:00:00",6.42999982834,0.238999992609,114.900001526,14.1300001144,7.23000001907,1.39999997616,12.6700000763
"2002-03-02 12:00:00",6.84999990463,0.28900000453,121.300003052,14.7700004578,7.30000019073,1.0,12.7700004578
"2002-03-02 13:00:00",7.15999984741,0.291000008583,120.400001526,14.5500001907,7.38000011444,1.0,12.529999733
"2002-03-02 14:00:00",7.84000015259,0.272000014782,112.099998474,13.3199996948,7.34000015259,104.900001526,12.4499998093
"2002-03-02 15:00:00",10.7100000381,0.136000007391,100.099998474,11.1099996567,7.28000020981,225.199996948,12.470000267
"2002-03-02 16:00:00",10.1000003815,0.10000000149,100.199996948,11.279999733,7.11999988556,109.900001526,12.4300003052
"2002-03-02 17:00:00",10.4799995422,0.0710000023246,102.599998474,11.4499998093,7.01000022888,118.099998474,12.4399995804
"2002-03-02 18:00:00",10.5399999619,0.0500000007451,103.800003052,11.5699996948,6.92999982834,324.100006104,12.4399995804
"2002-03-02 19:00:00",11.2899999619,0.0370000004768,105.199996948,11.5200004578,6.78000020981,495.200012207,12.4499998093
"2002-03-02 20:00:00",11.2600002289,0.0630000010133,103.400001526,11.3400001526,6.80999994278,217.199996948,12.4499998093
"2002-03-02 21:00:00",11.1499996185,0.0890000015497,100.800003052,11.0799999237,6.73999977112,89.1999969482,12.4600000381
"2002-03-02 22:00:00",11.4600000381,0.10000000149,98.5,10.7399997711,6.71000003815,65.0,12.4600000381
"2002-03-02 23:00:00",11.7299995422,0.119000002742,97.5,10.5699996948,6.71999979019,51.4000015259,12.470000267
"2002-03-03 00:00:00",11.8500003815,0.136000007391,96.0999984741,10.3800001144,6.71999979019,40.0999984741,12.470000267
"2002-03-03 01:00:00",11.8599996567,0.144999995828,95.0999984741,10.279999733,6.73000001907,35.0999984741,12.4600000381
"2002-03-03 02:00:00",11.7100000381,0.156000003219,94.5,10.25,6.75,29.6000003815,12.4499998093
"2002-03-03 03:00:00",11.5900001526,0.167999997735,94.4000015259,10.2600002289,6.75,25.7999992371,12.4399995804
"2002-03-03 04:00:00",11.3000001907,0.195999994874,94.8000030518,10.3699998856,6.75,27.3999996185,12.4300003052
"2002-03-03 05:00:00",11.1899995804,0.206000000238,94.5,10.3699998856,6.76999998093,24.8999996185,12.4200000763
"2002-03-03 06:00:00",11.220000267,0.21099999547,93.5,10.2600002289,6.82000017166,21.6000003815,12.4200000763
"2002-03-03 07:00:00",11.1499996185,0.221000000834,94.5999984741,10.3900003433,6.80999994278,20.7999992371,12.4099998474
"2002-03-03 08:00:00",11.1899995804,0.229000002146,94.8000030518,10.3999996185,6.82999992371,20.2000007629,12.4099998474
"2002-03-03 09:00:00",11.25,0.234999999404,95.3000030518,10.4399995804,6.86000013351,20.1000003815,12.4099998474
"2002-03-03 10:00:00",11.4600000381,0.236000001431,96.4000015259,10.5100002289,6.88000011444,22.2000007629,12.4200000763
"2002-03-03 11:00:00",11.8400001526,0.24699999392,100.599998474,10.8800001144,6.88999986649,25.2999992371,12.720000267
"2002-03-03 12:00:00",13.029999733,0.203999996185,100.900001526,10.6199998856,6.94000005722,20.3999996185,13.1400003433
"2002-03-03 13:00:00",13.4799995422,0.196999996901,101.199996948,10.5500001907,7.01000022888,16.3999996185,13.0100002289
"2002-03-03 14:00:00",13.6300001144,0.197999998927,100.199996948,10.4099998474,6.96999979019,16.3999996185,12.9600000381
"2002-03-03 15:00:00",13.8400001526,0.190999999642,99.8000030518,10.3100004196,6.96000003815,16.7000007629,13.0699996948
"2002-03-03 16:00:00",14.0699996948,0.188999995589,100.5,10.3299999237,6.94000005722,16.7999992371,12.8900003433
"2002-03-03 17:00:00",14.0,0.190999999642,98.5,10.1499996185,6.92000007629,13.3999996185,12.7700004578
"2002-03-03 18:00:00",13.8000001907,0.20000000298,94.5999984741,9.78999996185,6.90000009537,12.1000003815,12.720000267
"2002-03-03 19:00:00",13.5399999619,0.212999999523,91.3000030518,9.5,6.86999988556,10.8999996185,12.6899995804
"2002-03-03 20:00:00",13.3599996567,0.218999996781,90.4000015259,9.43999958038,6.86000013351,8.60000038147,12.6499996185
"2002-03-03 21:00:00",13.0600004196,0.225999996066,89.4000015259,9.39999961853,6.82000017166,7.80000019073,12.6300001144
"2002-03-03 22:00:00",12.6499996185,0.238000005484,89.4000015259,9.48999977112,6.84000015259,8.39999961853,12.6099996567
"2002-03-03 23:00:00",12.1999998093,0.241999998689,90.9000015259,9.73999977112,6.88000011444,7.09999990463,12.5900001526
"2002-03-04 00:00:00",11.8199996948,0.245000004768,91.9000015259,9.93999958038,6.88999986649,6.69999980927,12.5699996948
"2002-03-04 01:00:00",11.25,0.252999991179,92.3000030518,10.1099996567,6.88999986649,6.30000019073,12.5399999619
"2002-03-04 02:00:00",10.6499996185,0.25799998641,92.8000030518,10.3100004196,6.90000009537,6.5,12.5
"2002-03-04 03:00:00",9.96000003815,0.263999998569,93.1999969482,10.5200004578,6.92000007629,5.30000019073,12.470000267
"2002-03-04 04:00:00",9.46000003815,0.266999989748,94.0999984741,10.75,6.90999984741,5.40000009537,12.4399995804
"2002-03-04 05:00:00",9.01000022888,0.270999997854,95.0,10.970000267,6.92000007629,4.69999980927,12.4200000763
"2002-03-04 06:00:00",8.60999965668,0.273000001907,95.5,11.1400003433,6.92999982834,4.40000009537,12.3800001144
"2002-03-04 07:00:00",8.21000003815,0.272000014782,95.8000030518,11.279999733,6.92999982834,3.79999995232,12.3699998856
"2002-03-04 08:00:00",7.86999988556,0.272000014782,97.6999969482,11.6000003815,6.94000005722,3.5,12.6499996185
"2002-03-04 09:00:00",7.69999980927,0.273000001907,102.699996948,12.25,6.98999977112,3.29999995232,13.1800003052
"2002-03-04 10:00:00",7.82000017166,0.273000001907,106.900001526,12.6999998093,7.03000020981,3.20000004768,13.7399997711
"2002-03-04 11:00:00",8.27000045776,0.272000014782,110.099998474,12.9499998093,7.07999992371,3.29999995232,13.6899995804
"2002-03-04 12:00:00",8.61999988556,0.270999997854,107.400001526,12.5200004578,7.11999988556,2.90000009537,13.6999998093
"2002-03-04 13:00:00",9.10000038147,0.27500000596,113.199996948,13.0500001907,7.17999982834,2.79999995232,13.6300001144
"2002-03-04 14:00:00",9.40999984741,0.277000010014,113.800003052,13.0100002289,7.19999980927,2.90000009537,13.6800003052
"2002-03-04 15:00:00",9.48999977112,0.275999993086,113.599998474,12.9600000381,7.21000003815,2.5,13.6499996185
"2002-03-04 16:00:00",9.36999988556,0.27500000596,111.300003052,12.7399997711,7.19999980927,2.09999990463,13.6400003433
"2002-03-04 17:00:00",8.88000011444,0.275999993086,107.0,12.3999996185,7.17999982834,2.20000004768,12.8299999237
"2002-03-04 18:00:00",8.39999961853,0.27500000596,102.800003052,12.0500001907,7.13999986649,2.40000009537,12.75
"2002-03-04 19:00:00",8.02999973297,0.275999993086,99.4000015259,11.7600002289,7.07999992371,2.79999995232,12.7100000381
"2002-03-04 20:00:00",7.59000015259,0.277999997139,96.5,11.5399999619,7.03000020981,2.90000009537,12.6599998474
"2002-03-04 21:00:00",7.28000020981,0.270000010729,94.9000015259,11.4399995804,6.98000001907,4.19999980927,12.6300001144
"2002-03-04 22:00:00",6.90999984741,0.277999997139,94.1999969482,11.4499998093,6.96999979019,7.0,12.6099996567
"2002-03-04 23:00:00",6.57999992371,0.280999988317,94.3000030518,11.5600004196,6.94999980927,11.3000001907,12.5900001526
"2002-03-05 00:00:00",6.23999977112,0.277999997139,94.8000030518,11.720000267,6.94000005722,17.0,12.5699996948
"2002-03-05 01:00:00",5.90000009537,0.28900000453,95.5999984741,11.9200000763,6.92999982834,27.6000003815,12.5500001907
"2002-03-05 02:00:00",5.59999990463,0.291999995708,96.4000015259,12.1099996567,6.94000005722,32.2000007629,12.529999733
"2002-03-05 03:00:00",5.28000020981,0.284000009298,97.0,12.2899999619,6.94000005722,31.0,12.5100002289
"2002-03-05 04:00:00",4.94999980927,0.282000005245,97.8000030518,12.5,6.94999980927,24.7000007629,12.4899997711
"2002-03-05 05:00:00",4.61000013351,0.280999988317,98.4000015259,12.6800003052,6.94999980927,16.5,12.4799995422
"2002-03-05 06:00:00",4.32999992371,0.280000001192,98.9000015259,12.8400001526,6.94999980927,11.5,12.4600000381
"2002-03-05 07:00:00",4.05000019073,0.280999988317,99.5,13.0200004578,6.96999979019,7.69999980927,12.4399995804
"2002-03-05 08:00:00",3.81999993324,0.277000010014,101.0,13.2899999619,6.96999979019,5.30000019073,12.8400001526
"2002-03-05 09:00:00",4.09999990463,0.273000001907,104.900001526,13.6999998093,7.0,3.90000009537,12.8400001526
"2002-03-05 10:00:00",4.76999998093,0.275999993086,109.400001526,14.0500001907,7.03999996185,3.0,13.779999733
"2002-03-05 11:00:00",5.73000001907,0.266999989748,112.5,14.0900001526,7.05999994278,2.09999990463,13.6899995804
"2002-03-05 12:00:00",7.03999996185,0.279000014067,115.300003052,13.970000267,7.11000013351,1.79999995232,13.6599998474
"2002-03-05 13:00:00",8.05000019073,0.280999988317,116.400001526,13.7600002289,7.13000011444,1.60000002384,13.6199998856
"2002-03-05 14:00:00",8.89000034332,0.280000001192,116.800003052,13.529999733,7.26000022888,1.5,13.5799999237
"2002-03-05 15:00:00",9.26000022888,0.280000001192,115.900001526,13.3100004196,7.17999982834,2.09999990463,13.5200004578
"2002-03-05 16:00:00",9.19999980927,0.280000001192,113.300003052,13.0200004578,7.17000007629,1.79999995232,13.4899997711
"2002-03-05 17:00:00",9.06000041962,0.275999993086,108.699996948,12.529999733,7.15000009537,22.8999996185,12.8400001526
"2002-03-05 18:00:00",8.77999973297,0.275999993086,104.5,12.1300001144,7.11000013351,3.0,12.7700004578
"2002-03-05 19:00:00",8.39000034332,0.280000001192,100.300003052,11.75,7.07000017166,4.40000009537,12.7299995422
"2002-03-05 20:00:00",8.02999973297,0.284000009298,96.6999969482,11.4300003052,7.01999998093,6.90000009537,12.6899995804
"2002-03-05 21:00:00",7.71999979019,0.268999993801,95.4000015259,11.3699998856,7.0,12.6000003815,12.6400003433
"2002-03-05 22:00:00",7.44000005722,0.266000002623,95.1999969482,11.4300003052,6.98000001907,19.0,12.6099996567
"2002-03-05 23:00:00",7.15000009537,0.264999985695,95.5999984741,11.5500001907,6.96999979019,20.0,12.5900001526
"2002-03-06 00:00:00",6.90000009537,0.275999993086,96.1999969482,11.6999998093,6.96999979019,15.3999996185,12.5699996948
"2002-03-06 01:00:00",6.59999990463,0.273999989033,97.4000015259,11.9300003052,6.96999979019,10.6999998093,12.5500001907
"2002-03-06 02:00:00",6.34000015259,0.272000014782,97.9000015259,12.0799999237,6.96999979019,8.5,12.529999733
"2002-03-06 03:00:00",6.07000017166,0.277999997139,98.8000030518,12.2700004578,6.96000003815,5.80000019073,12.5100002289
"2002-03-06 04:00:00",5.78999996185,0.277000010014,99.4000015259,12.4200000763,6.98000001907,4.30000019073,12.4899997711
"2002-03-06 05:00:00",5.53999996185,0.287000000477,99.9000015259,12.5699996948,6.98999977112,3.09999990463,12.470000267
"2002-03-06 06:00:00",5.30000019073,0.286000013351,100.5,12.720000267,7.0,3.0,12.4499998093
"2002-03-06 07:00:00",5.09000015259,0.284999996424,100.900001526,12.8500003815,7.0,2.0,12.4499998093
"2002-03-06 08:00:00",4.96999979019,0.282999992371,101.400001526,12.9499998093,7.01000022888,1.60000002384,12.8199996948
"2002-03-06 09:00:00",5.28000020981,0.282000005245,106.199996948,13.4600000381,7.03000020981,1.29999995232,12.8500003815
"2002-03-06 10:00:00",6.15000009537,0.280999988317,111.300003052,13.7899999619,7.07000017166,1.20000004768,13.6400003433
"2002-03-06 11:00:00",7.26999998093,0.277000010014,114.599998474,13.8100004196,7.09999990463,0.899999976158,13.5200004578
"2002-03-06 12:00:00",8.68000030518,0.275999993086,117.199996948,13.6400003433,7.21000003815,0.899999976158,13.4799995422
"2002-03-06 13:00:00",9.85000038147,0.280999988317,118.599998474,13.4300003052,7.26000022888,1.10000002384,13.4200000763
"2002-03-06 14:00:00",10.6899995804,0.277000010014,119.099998474,13.220000267,7.34999990463,7.09999990463,13.3699998856
"2002-03-06 15:00:00",11.1099996567,0.277000010014,118.900001526,13.0600004196,7.32999992371,0.800000011921,13.3199996948
"2002-03-06 16:00:00",11.0799999237,0.277999997139,116.599998474,12.8199996948,7.26999998093,0.800000011921,13.3000001907
"2002-03-06 17:00:00",10.8800001144,0.277000010014,111.699996948,12.3500003815,7.26000022888,0.899999976158,12.8500003815
"2002-03-06 18:00:00",10.6400003433,0.275999993086,107.400001526,11.9399995804,7.21999979019,1.20000004768,12.7899999619
"2002-03-06 19:00:00",10.2899999619,0.275999993086,103.199996948,11.5600004196,7.17999982834,1.39999997616,12.75
"2002-03-06 20:00:00",9.93999958038,0.279000014067,99.5999984741,11.25,7.13999986649,2.40000009537,12.7100000381
"2002-03-06 21:00:00",9.61999988556,0.282000005245,97.6999969482,11.1199998856,7.09000015259,4.5,12.6700000763
"2002-03-06 22:00:00",9.28999996185,0.282999992371,96.6999969482,11.0900001526,7.05000019073,6.5,12.6400003433
"2002-03-06 23:00:00",8.98999977112,0.282999992371,95.8000030518,11.0699996948,7.03000020981,6.69999980927,12.6099996567
"2002-03-07 00:00:00",8.72000026703,0.284000009298,94.8000030518,11.029999733,7.0,5.90000009537,12.5900001526
"2002-03-07 01:00:00",8.43999958038,0.284999996424,93.5999984741,10.9499998093,6.98999977112,4.69999980927,12.5600004196
"2002-03-07 02:00:00",8.18999958038,0.287999987602,93.5999984741,11.0200004578,6.96999979019,3.5,12.5399999619
"2002-03-07 03:00:00",7.86999988556,0.28900000453,93.3000030518,11.0799999237,6.96000003815,3.09999990463,12.5200004578
"2002-03-07 04:00:00",7.61000013351,0.291000008583,94.0,11.2399997711,6.96000003815,2.29999995232,12.5
"2002-03-07 05:00:00",7.34000015259,0.291000008583,94.4000015259,11.3599996567,6.96999979019,2.0,12.4799995422
"2002-03-07 06:00:00",7.05999994278,0.291000008583,94.8000030518,11.4799995422,6.96999979019,1.5,12.4600000381
"2002-03-07 07:00:00",6.84999990463,0.289999991655,95.8000030518,11.6599998474,6.96999979019,1.20000004768,12.4399995804
"2002-03-07 08:00:00",6.44999980927,0.28900000453,97.3000030518,11.970000267,6.98999977112,1.0,12.8000001907
"2002-03-07 09:00:00",7.15000009537,0.287000000477,104.900001526,12.6800003052,7.03000020981,1.0,13.0500001907
"2002-03-07 10:00:00",7.98000001907,0.287000000477,111.300003052,13.1800003052,7.11999988556,0.699999988079,13.5699996948
"2002-03-07 11:00:00",9.18000030518,0.282999992371,117.300003052,13.4799995422,7.13999986649,0.699999988079,13.4399995804
"2002-03-07 12:00:00",10.5799999237,0.282000005245,120.5,13.4099998474,7.19999980927,0.600000023842,13.3599996567
"2002-03-07 13:00:00",11.75,0.280999988317,122.400001526,13.2600002289,7.30000019073,0.5,13.3000001907
"2002-03-07 14:00:00",12.6999998093,0.280999988317,122.400001526,12.970000267,7.25,0.40000000596,13.25
"2002-03-07 15:00:00",13.1000003815,0.282999992371,121.300003052,12.7399997711,7.26999998093,0.40000000596,13.1899995804
"2002-03-07 16:00:00",13.0699996948,0.280999988317,118.300003052,12.4399995804,7.28000020981,0.800000011921,13.1700000763
"2002-03-07 17:00:00",12.9799995422,0.280000001192,111.800003052,11.779999733,7.28000020981,1.10000002384,12.8599996567
"2002-03-07 18:00:00",12.7299995422,0.289999991655,105.5,11.1700000763,7.23999977112,1.89999997616,12.8100004196
"2002-03-07 19:00:00",12.3500003815,0.294999986887,99.1999969482,10.6000003815,7.19000005722,5.40000009537,12.7600002289
"2002-03-07 20:00:00",11.8999996185,0.29699999094,95.0,10.2600002289,7.15000009537,6.80000019073,12.720000267
"2002-03-07 21:00:00",11.4200000763,0.289999991655,93.9000015259,10.25,7.11000013351,5.59999990463,12.6800003052
"2002-03-07 22:00:00",11.0100002289,0.284000009298,93.8000030518,10.3400001526,7.09000015259,3.79999995232,12.6499996185
"2002-03-07 23:00:00",10.6599998474,0.280999988317,93.5,10.3800001144,7.05999994278,2.40000009537,12.6099996567
"2002-03-08 00:00:00",10.3199996948,0.279000014067,92.4000015259,10.3500003815,7.03000020981,2.09999990463,12.6000003815
"2002-03-08 01:00:00",9.97000026703,0.279000014067,91.0999984741,10.279999733,7.01000022888,1.5,12.5699996948
"2002-03-08 02:00:00",9.67000007629,0.280999988317,90.8000030518,10.3199996948,6.98000001907,1.29999995232,12.5399999619
"2002-03-08 03:00:00",9.34000015259,0.282999992371,90.4000015259,10.3500003815,6.96000003815,1.29999995232,12.5200004578
"2002-03-08 04:00:00",9.03999996185,0.28900000453,91.3000030518,10.529999733,6.96000003815,1.5,12.5
"2002-03-08 05:00:00",8.56999969482,0.286000013351,90.5999984741,10.5699996948,6.96999979019,1.0,12.4799995422
"2002-03-08 06:00:00",8.44999980927,0.284000009298,94.5999984741,11.0699996948,6.98000001907,0.5,12.4600000381
"2002-03-08 07:00:00",8.14999961853,0.284000009298,95.3000030518,11.2399997711,6.98000001907,0.40000000596,12.4600000381
"2002-03-08 08:00:00",8.06000041962,0.282000005245,99.5999984741,11.7700004578,7.0,0.20000000298,12.9399995804
"2002-03-08 09:00:00",8.34000015259,0.279000014067,106.099998474,12.4499998093,7.03999996185,0.20000000298,12.8800001144
"2002-03-08 10:00:00",9.30000019073,0.277000010014,114.099998474,13.0900001526,7.11999988556,0.10000000149,13.4899997711
"2002-03-08 11:00:00",10.4200000763,0.273000001907,118.5,13.2399997711,7.21000003815,0.20000000298,13.3500003815
"2002-03-08 12:00:00",11.8500003815,0.270000010729,121.900001526,13.1700000763,7.26999998093,0.300000011921,13.3000001907
"2002-03-08 13:00:00",13.1000003815,0.273000001907,123.400001526,12.970000267,7.30999994278,0.40000000596,13.2399997711
"2002-03-08 14:00:00",13.8599996567,0.280999988317,124.900001526,12.8999996185,7.38000011444,0.40000000596,13.1899995804
"2002-03-08 15:00:00",14.4600000381,0.284999996424,125.900001526,12.8299999237,7.42999982834,0.40000000596,13.1400003433
"2002-03-08 16:00:00",14.3400001526,0.284999996424,120.400001526,12.3100004196,7.44000005722,0.5,13.1199998856
"2002-03-08 17:00:00",14.1599998474,0.284999996424,113.599998474,11.6599998474,7.38999986649,0.600000023842,12.8500003815
"2002-03-08 18:00:00",13.9399995804,0.284999996424,106.0,10.9300003052,7.32000017166,1.5,12.8000001907
"2002-03-08 19:00:00",13.6300001144,0.287000000477,97.9000015259,10.1599998474,7.21000003815,1.5,12.7600002289
"2002-03-08 20:00:00",13.4200000763,0.287999987602,92.0999984741,9.60999965668,7.11000013351,1.39999997616,12.7299995422
"2002-03-08 21:00:00",13.1599998474,0.282999992371,90.4000015259,9.47999954224,7.05000019073,1.29999995232,12.6899995804
"2002-03-08 22:00:00",12.9600000381,0.280999988317,90.1999969482,9.51000022888,7.01999998093,1.0,12.6599998474
"2002-03-08 23:00:00",12.6899995804,0.284999996424,90.0999984741,9.55000019073,6.98999977112,0.800000011921,12.6400003433
"2002-03-09 00:00:00",12.4300003052,0.287999987602,90.4000015259,9.64000034332,6.98999977112,0.600000023842,12.6199998856
"2002-03-09 01:00:00",12.1300001144,0.289999991655,91.0,9.77000045776,6.98999977112,0.600000023842,12.5900001526
"2002-03-09 02:00:00",11.8999996185,0.289999991655,91.6999969482,9.89000034332,7.0,0.600000023842,12.5600004196
"2002-03-09 03:00:00",11.8000001907,0.291000008583,92.3000030518,9.97999954224,7.0,1.10000002384,12.5500001907
"2002-03-09 04:00:00",11.75,0.291000008583,92.3000030518,10.0,7.0,0.899999976158,12.5399999619
"2002-03-09 05:00:00",11.7399997711,0.291000008583,93.0999984741,10.0900001526,6.98999977112,1.29999995232,12.529999733
"2002-03-09 06:00:00",11.7399997711,0.28900000453,93.4000015259,10.1199998856,6.98999977112,1.29999995232,12.529999733
"2002-03-09 07:00:00",11.7600002289,0.287999987602,93.6999969482,10.1400003433,7.01000022888,1.0,12.5200004578
"2002-03-09 08:00:00",11.8599996567,0.286000013351,97.4000015259,10.5200004578,7.0,1.5,12.5500001907
"2002-03-09 09:00:00",12.1000003815,0.284000009298,104.199996948,11.1899995804,7.03000020981,2.09999990463,12.7399997711
"2002-03-09 10:00:00",12.4899997711,0.284999996424,113.099998474,12.0500001907,7.07999992371,1.39999997616,12.9300003052
"2002-03-09 11:00:00",12.9099998474,0.294999986887,115.199996948,12.1499996185,7.13999986649,22.7999992371,13.1499996185